Torna al catalogo

SL-16 DEB

AttivoLEO
NORAD 22442·DEBRIS·🇷🇺 Russia

Lanciato Dec 25, 1992 da Baikonur Cosmodrome

Loading…

Prossimi Passaggi (prossime 24 ore)

TLE

AggiornatoSource: Space-Track

Epoca: Sep 14, 2026, 03:50 UTC

1 22442U 92093EK  26257.15993683  .00003776  00000-0  92941-3 0  9994
2 22442  71.0974 290.7201 0090654 262.0846  97.0000 14.50422383732131

Traccia SL-16 DEB in tempo reale con AllMySat

Download on the App Store